Retour au catalogue

CZ-6A DEB

ActifSSO
NORAD 56601·DEBRIS·🇨🇳 China

Lancé Nov 11, 2022 depuis Taiyuan Satellite Launch Center

Loading…

Prochains Passages (prochaines 24 heures)

TLE

FraisSource: Space-Track

Époque: Sep 14, 2026, 07:06 UTC

1 56601U 22151ADZ 26257.29614268  .00000337  00000-0  12607-3 0  9991
2 56601  98.5995 277.4792 0114619 137.9658 223.0392 14.34463622177443

Suivez CZ-6A DEB en temps réel avec AllMySat

Download on the App Store